Simultaneous Nadir Overpasses (SNOs) Predictions

Prediction of SNOs near US between NOAA-19 and NPP Satellite Orbit:

Table of predicted SNOs near US for the next 10.0 days since TLE Epoch: 5/20/2012
<
Index Date (NOAA-19) Time (NOAA-19) NOAA-19 Lat,Lon Date (NPP) Time (NPP) NPP Lat,Lon Distance(km) Time Diff (sec)
1 05/27/2012 17:38:50 41.57, -69.52 05/27/2012 17:41:16 41.01, -72.05 220.78 146
2 05/27/2012 19:21:30 43.57, -95.76 05/27/2012 19:23:21 43.05, -98.14 201.16 111
3 05/27/2012 21:04:10 45.57,-122.05 05/27/2012 21:05:27 45.14,-124.29 181.86 77
4 05/28/2012 07:42:30 42.04, -84.48 05/28/2012 07:40:12 42.34, -86.18 143.67 138
5 05/28/2012 09:25:11 39.98,-110.72 05/28/2012 09:22:17 40.30,-112.26 135.39 174
6 05/28/2012 19:12:35 49.96, -95.68 05/28/2012 19:06:17 49.87, -96.11 32.06 378
7 05/28/2012 20:54:41
